Time,TemperatureF,DewpointF,PressureIn,WindDirection,WindDirectionDegrees,WindSpeedMPH,WindSpeedGustMPH,Humidity,HourlyPrecipIn,Conditions,Clouds,dailyrainin,SoftwareType,DateUTC
2013-01-31 00:02:00,78.0,-99.9,30.02,East,80,16.0,20.0,-999,-99.99,,,-99.99,,2013-01-31 04:02:00,
2013-01-31 00:11:00,78.0,-99.9,30.02,East,80,16.0,20.0,-999,-99.99,,,-99.99,,2013-01-31 04:11:00,
2013-01-31 00:22:00,78.0,-99.9,30.02,East,80,16.0,20.0,-999,-99.99,,,-99.99,,2013-01-31 04:22:00,
2013-01-31 00:30:00,78.0,-99.9,30.02,East,80,18.0,20.0,-999,-99.99,,,-99.99,,2013-01-31 04:30:00,
2013-01-31 00:32:00,78.0,-99.9,30.02,East,80,18.0,22.0,-999,-99.99,,,-99.99,,2013-01-31 04:32:00,
2013-01-31 00:42:00,78.0,-99.9,30.02,East,80,18.0,22.0,-999,-99.99,,,-99.99,,2013-01-31 04:42:00,
2013-01-31 00:52:00,78.0,-99.9,30.02,East,80,18.0,22.0,-999,-99.99,,,-99.99,,2013-01-31 04:52:00,
2013-01-31 01:00:00,78.0,-99.9,30.02,East,80,18.0,22.0,-999,-99.99,,,-99.99,,2013-01-31 05:00:00,
2013-01-31 01:04:00,78.0,-99.9,30.02,East,80,18.0,20.0,-999,-99.99,,,-99.99,,2013-01-31 05:04:00,
2013-01-31 01:12:00,78.0,-99.9,30.02,East,80,18.0,20.0,-999,-99.99,,,-99.99,,2013-01-31 05:12:00,
2013-01-31 01:22:00,78.0,-99.9,30.02,East,80,18.0,20.0,-999,-99.99,,,-99.99,,2013-01-31 05:22:00,
2013-01-31 01:42:00,78.0,-99.9,30.02,East,80,18.0,22.0,-999,-99.99,,,-99.99,,2013-01-31 05:42:00,
2013-01-31 01:52:00,78.0,-99.9,30.02,East,80,18.0,22.0,-999,-99.99,,,-99.99,,2013-01-31 05:52:00,
2013-01-31 10:03:00,78.0,-99.9,30.06,East,90,18.0,22.0,-999,-99.99,,,-99.99,,2013-01-31 14:03:00,
2013-01-31 10:32:00,78.0,-99.9,30.07,East,80,18.0,20.0,-999,-99.99,,,-99.99,,2013-01-31 14:32:00,
2013-01-31 10:42:00,78.0,-99.9,30.07,East,80,18.0,20.0,-999,-99.99,,,-99.99,,2013-01-31 14:42:00,
2013-01-31 10:52:00,78.0,-99.9,30.07,East,80,18.0,20.0,-999,-99.99,,,-99.99,,2013-01-31 14:52:00,
2013-01-31 11:03:00,79.0,-99.9,30.07,East,90,18.0,22.0,-999,-99.99,,,-99.99,,2013-01-31 15:03:00,
2013-01-31 11:12:00,79.0,-99.9,30.07,East,90,18.0,22.0,-999,-99.99,,,-99.99,,2013-01-31 15:12:00,
2013-01-31 11:23:00,79.0,-99.9,30.07,East,90,18.0,22.0,-999,-99.99,,,-99.99,,2013-01-31 15:23:00,
2013-01-31 11:32:00,79.0,-99.9,30.07,East,80,18.0,22.0,-999,-99.99,,,-99.99,,2013-01-31 15:32:00,
2013-01-31 11:42:00,78.0,-99.9,30.07,East,90,16.0,20.0,-999,-99.99,,,-99.99,,2013-01-31 15:42:00,
2013-01-31 11:52:00,78.0,-99.9,30.07,East,90,16.0,20.0,-999,-99.99,,,-99.99,,2013-01-31 15:52:00,
2013-01-31 12:04:00,78.0,-99.9,30.06,East,80,16.0,18.0,-999,-99.99,,,-99.99,,2013-01-31 16:04:00,
2013-01-31 12:13:00,78.0,-99.9,30.06,East,80,16.0,18.0,-999,-99.99,,,-99.99,,2013-01-31 16:13:00,
2013-01-31 12:22:00,78.0,-99.9,30.06,East,80,16.0,18.0,-999,-99.99,,,-99.99,,2013-01-31 16:22:00,
2013-01-31 12:33:00,77.0,-99.9,30.06,East,80,13.0,20.0,-999,-99.99,,,-99.99,,2013-01-31 16:33:00,
2013-01-31 12:42:00,77.0,-99.9,30.06,East,80,13.0,20.0,-999,-99.99,,,-99.99,,2013-01-31 16:42:00,
2013-01-31 12:52:00,77.0,-99.9,30.06,East,80,13.0,20.0,-999,-99.99,,,-99.99,,2013-01-31 16:52:00,
2013-01-31 13:03:00,78.0,-99.9,30.05,East,80,16.0,20.0,-999,-99.99,,,-99.99,,2013-01-31 17:03:00,
2013-01-31 13:13:00,78.0,-99.9,30.05,East,80,16.0,20.0,-999,-99.99,,,-99.99,,2013-01-31 17:13:00,
2013-01-31 13:23:00,78.0,-99.9,30.05,East,80,16.0,20.0,-999,-99.99,,,-99.99,,2013-01-31 17:23:00,
2013-01-31 13:32:00,78.0,-99.9,30.03,East,80,16.0,20.0,-999,-99.99,,,-99.99,,2013-01-31 17:32:00,
2013-01-31 13:44:00,78.0,-99.9,30.03,East,80,16.0,20.0,-999,-99.99,,,-99.99,,2013-01-31 17:44:00,
2013-01-31 13:53:00,78.0,-99.9,30.03,East,80,16.0,20.0,-999,-99.99,,,-99.99,,2013-01-31 17:53:00,
2013-01-31 14:03:00,78.0,-99.9,30.02,East,80,16.0,20.0,-999,-99.99,,,-99.99,,2013-01-31 18:03:00,
2013-01-31 14:13:00,78.0,-99.9,30.02,East,80,16.0,20.0,-999,-99.99,,,-99.99,,2013-01-31 18:13:00,
2013-01-31 14:22:00,78.0,-99.9,30.02,East,80,16.0,20.0,-999,-99.99,,,-99.99,,2013-01-31 18:22:00,
2013-01-31 14:32:00,78.0,-99.9,30.01,East,80,13.0,18.0,-999,-99.99,,,-99.99,,2013-01-31 18:32:00,
2013-01-31 14:43:00,78.0,-99.9,30.01,East,80,13.0,18.0,-999,-99.99,,,-99.99,,2013-01-31 18:43:00,
2013-01-31 14:52:00,78.0,-99.9,30.01,East,80,13.0,18.0,-999,-99.99,,,-99.99,,2013-01-31 18:52:00,
2013-01-31 15:03:00,78.0,-99.9,30.00,East,80,13.0,18.0,-999,-99.99,,,-99.99,,2013-01-31 19:03:00,
2013-01-31 15:13:00,78.0,-99.9,30.00,East,80,13.0,18.0,-999,-99.99,,,-99.99,,2013-01-31 19:13:00,
2013-01-31 15:22:00,78.0,-99.9,30.00,East,80,13.0,18.0,-999,-99.99,,,-99.99,,2013-01-31 19:22:00,
2013-01-31 15:33:00,79.0,-99.9,29.99,East,90,16.0,20.0,-999,-99.99,,,-99.99,,2013-01-31 19:33:00,
2013-01-31 15:43:00,79.0,-99.9,29.99,East,90,16.0,20.0,-999,-99.99,,,-99.99,,2013-01-31 19:43:00,
2013-01-31 15:52:00,79.0,-99.9,29.99,East,90,16.0,20.0,-999,-99.99,,,-99.99,,2013-01-31 19:52:00,
2013-01-31 16:03:00,79.0,-99.9,29.99,East,80,16.0,18.0,-999,-99.99,,,-99.99,,2013-01-31 20:03:00,
2013-01-31 16:12:00,79.0,-99.9,29.99,East,80,16.0,18.0,-999,-99.99,,,-99.99,,2013-01-31 20:12:00,
2013-01-31 16:22:00,79.0,-99.9,29.99,East,80,16.0,18.0,-999,-99.99,,,-99.99,,2013-01-31 20:22:00,
2013-01-31 16:32:00,79.0,-99.9,29.98,East,80,16.0,18.0,-999,-99.99,,,-99.99,,2013-01-31 20:32:00,
2013-01-31 16:42:00,79.0,-99.9,29.98,East,80,16.0,18.0,-999,-99.99,,,-99.99,,2013-01-31 20:42:00,
2013-01-31 16:53:00,79.0,-99.9,29.98,East,80,16.0,18.0,-999,-99.99,,,-99.99,,2013-01-31 20:53:00,
2013-01-31 17:02:00,78.0,-99.9,29.98,East,80,13.0,18.0,-999,-99.99,,,-99.99,,2013-01-31 21:02:00,
2013-01-31 17:13:00,78.0,-99.9,29.98,East,80,13.0,18.0,-999,-99.99,,,-99.99,,2013-01-31 21:13:00,
2013-01-31 17:22:00,78.0,-99.9,29.98,East,80,13.0,18.0,-999,-99.99,,,-99.99,,2013-01-31 21:22:00,
2013-01-31 17:32:00,79.0,-99.9,29.98,East,90,13.0,18.0,-999,-99.99,,,-99.99,,2013-01-31 21:32:00,
2013-01-31 17:42:00,79.0,-99.9,29.98,East,90,13.0,18.0,-999,-99.99,,,-99.99,,2013-01-31 21:42:00,
2013-01-31 17:52:00,79.0,-99.9,29.98,East,90,13.0,18.0,-999,-99.99,,,-99.99,,2013-01-31 21:52:00,
2013-01-31 18:03:00,79.0,-99.9,29.99,East,80,16.0,18.0,-999,-99.99,,,-99.99,,2013-01-31 22:03:00,
2013-01-31 18:11:00,79.0,-99.9,29.99,East,80,16.0,18.0,-999,-99.99,,,-99.99,,2013-01-31 22:11:00,
2013-01-31 18:22:00,79.0,-99.9,29.99,East,80,16.0,18.0,-999,-99.99,,,-99.99,,2013-01-31 22:22:00,
2013-01-31 18:33:00,79.0,-99.9,30.00,ENE,70,13.0,18.0,-999,-99.99,,,-99.99,,2013-01-31 22:33:00,
2013-01-31 18:42:00,79.0,-99.9,30.00,ENE,70,13.0,18.0,-999,-99.99,,,-99.99,,2013-01-31 22:42:00,
2013-01-31 18:52:00,79.0,-99.9,30.00,ENE,70,13.0,18.0,-999,-99.99,,,-99.99,,2013-01-31 22:52:00,
2013-01-31 19:03:00,79.0,-99.9,30.00,ENE,70,16.0,20.0,-999,-99.99,,,-99.99,,2013-01-31 23:03:00,
2013-01-31 19:12:00,79.0,-99.9,30.00,ENE,70,16.0,20.0,-999,-99.99,,,-99.99,,2013-01-31 23:12:00,
2013-01-31 19:22:00,79.0,-99.9,30.00,ENE,70,16.0,20.0,-999,-99.99,,,-99.99,,2013-01-31 23:22:00,
2013-01-31 19:32:00,79.0,-99.9,30.00,ENE,70,16.0,18.0,-999,-99.99,,,-99.99,,2013-01-31 23:32:00,
2013-01-31 19:43:00,79.0,-99.9,30.00,ENE,70,16.0,18.0,-999,-99.99,,,-99.99,,2013-01-31 23:43:00,
2013-01-31 19:52:00,79.0,-99.9,30.00,ENE,70,16.0,18.0,-999,-99.99,,,-99.99,,2013-01-31 23:52:00,
2013-01-31 20:02:00,79.0,-99.9,30.01,ENE,70,16.0,22.0,-999,-99.99,,,-99.99,,2013-02-01 00:02:00,
2013-01-31 20:12:00,79.0,-99.9,30.01,ENE,70,16.0,22.0,-999,-99.99,,,-99.99,,2013-02-01 00:12:00,
2013-01-31 20:22:00,79.0,-99.9,30.01,ENE,70,16.0,22.0,-999,-99.99,,,-99.99,,2013-02-01 00:22:00,
2013-01-31 20:32:00,75.0,-99.9,30.02,ENE,60,11.0,18.0,-999,-99.99,,,-99.99,,2013-02-01 00:32:00,
2013-01-31 20:42:00,75.0,-99.9,30.02,ENE,60,11.0,18.0,-999,-99.99,,,-99.99,,2013-02-01 00:42:00,
2013-01-31 20:52:00,75.0,-99.9,30.02,ENE,60,11.0,18.0,-999,-99.99,,,-99.99,,2013-02-01 00:52:00,
2013-01-31 21:01:00,78.0,-99.9,30.02,East,80,16.0,20.0,-999,-99.99,,,-99.99,,2013-02-01 01:01:00,
2013-01-31 21:12:00,78.0,-99.9,30.02,East,80,16.0,20.0,-999,-99.99,,,-99.99,,2013-02-01 01:12:00,
2013-01-31 21:22:00,78.0,-99.9,30.02,East,80,16.0,20.0,-999,-99.99,,,-99.99,,2013-02-01 01:22:00,
2013-01-31 21:32:00,78.0,-99.9,30.02,East,80,16.0,20.0,-999,-99.99,,,-99.99,,2013-02-01 01:32:00,
2013-01-31 21:42:00,78.0,-99.9,30.02,East,80,16.0,20.0,-999,-99.99,,,-99.99,,2013-02-01 01:42:00,
2013-01-31 21:52:00,78.0,-99.9,30.02,East,80,16.0,20.0,-999,-99.99,,,-99.99,,2013-02-01 01:52:00,
2013-01-31 22:02:00,78.0,-99.9,30.03,East,90,18.0,25.0,-999,-99.99,,,-99.99,,2013-02-01 02:02:00,
2013-01-31 22:12:00,78.0,-99.9,30.03,East,90,18.0,25.0,-999,-99.99,,,-99.99,,2013-02-01 02:12:00,
2013-01-31 22:22:00,78.0,-99.9,30.03,East,90,18.0,25.0,-999,-99.99,,,-99.99,,2013-02-01 02:22:00,
2013-01-31 22:32:00,79.0,-99.9,30.03,East,80,16.0,20.0,-999,-99.99,,,-99.99,,2013-02-01 02:32:00,
2013-01-31 22:42:00,79.0,-99.9,30.03,East,80,16.0,20.0,-999,-99.99,,,-99.99,,2013-02-01 02:42:00,
2013-01-31 22:52:00,79.0,-99.9,30.03,East,80,16.0,20.0,-999,-99.99,,,-99.99,,2013-02-01 02:52:00,
2013-01-31 23:02:00,79.0,-99.9,30.03,East,80,18.0,22.0,-999,-99.99,,,-99.99,,2013-02-01 03:02:00,
2013-01-31 23:12:00,79.0,-99.9,30.03,East,80,18.0,22.0,-999,-99.99,,,-99.99,,2013-02-01 03:12:00,
2013-01-31 23:22:00,79.0,-99.9,30.03,East,80,18.0,22.0,-999,-99.99,,,-99.99,,2013-02-01 03:22:00,
2013-01-31 23:33:00,78.0,-99.9,30.03,ENE,70,16.0,20.0,-999,-99.99,,,-99.99,,2013-02-01 03:33:00,
2013-01-31 23:42:00,78.0,-99.9,30.03,ENE,70,16.0,20.0,-999,-99.99,,,-99.99,,2013-02-01 03:42:00,
2013-01-31 23:52:00,78.0,-99.9,30.03,ENE,70,16.0,20.0,-999,-99.99,,,-99.99,,2013-02-01 03:52:00,